Regional Weather Roundup
Issued by NWS Little Rock, AR

Home | Current Version | Previous Version | Graphics & Text | Print | Product List | Glossary On
Versions: 1 2 3 4 5 6 7 8 9 10 11 12 13 14 15 16 17 18 19 20 21 22 23 24 25 26 27 28 29 30 31 32 33 34 35 36 37 38 39 40 41 42 43 44 45 46 47 48 49 50
000
ASUS44 KLZK 100505
RWRLZK

WEATHER ROUNDUP FOR ARKANSAS
NATIONAL WEATHER SERVICE LITTLE ROCK AR
1200 AM CDT THU JUL 10 2014

NOTE: "FAIR" INDICATES FEW OR NO CLOUDS BELOW 12,000 FEET WITH NO
SIGNIFICANT WEATHER AND/OR OBSTRUCTIONS TO VISIBILITY.

ARZ001-003-010-029-100600-
NORTHWEST ARKANSAS

CITY           SKY/WX    TMP DP  RH WIND       PRES   REMARKS
FAYETTEVILLE   CLEAR     65  64  97 CALM      30.09R
FORT SMITH     CLEAR     78  68  71 CALM      30.03R
HARRISON       PTCLDY    66  61  84 CALM      30.10R
BENTONVILLE    CLEAR     72  63  73 E3        30.10R
ROGERS         CLEAR     70  61  73 E6        30.11R
SILOAM SPGS    CLEAR     70  57  64 E3        30.10R
HIGHFILL       CLEAR     69  63  81 CALM      30.09R
$$

ARZ004-005-016-100600-
NORTH CENTRAL ARKANSAS

CITY           SKY/WX    TMP DP  RH WIND       PRES   REMARKS
BATESVILLE     CLEAR     70  66  88 CALM      30.05R
FLIPPIN        CLEAR     66  63  88 CALM      30.08R
MTN HOME       CLEAR     66  63  90 CALM      30.07R
$$

ARZ040-041-100600-
WEST CENTRAL ARKANSAS

CITY           SKY/WX    TMP DP  RH WIND       PRES   REMARKS
MENA           PTCLDY   N/A N/A N/A CALM      30.06R
MOUNT IDA      PTCLDY    71  70  96 CALM      30.03R FOG
$$

ARZ009-017-025-026-028-100600-
NORTHEAST ARKANSAS

CITY           SKY/WX    TMP DP  RH WIND       PRES   REMARKS
CORNING        FAIR      72  72 100 CALM      30.05R
JONESBORO      CLEAR     70  67  90 CALM      30.04R
NEWPORT        CLEAR     76  72  87 CALM      30.06R
WALNUT RIDGE   CLEAR     73  64  73 W3        30.04R
BLYTHEVILLE    CLEAR     73  70  90 SW5       30.03S
$$

ARZ022-023-033-042-044-100600-
CENTRAL ARKANSAS

CITY           SKY/WX    TMP DP  RH WIND       PRES   REMARKS
LITTLE ROCK    MOCLDY    74  70  87 CALM      30.04R
N LITTLE ROCK  MOCLDY    74  73  97 SW3       30.04R
JACKSONVILLE   MOCLDY    75  73  94 CALM      30.04R
SEARCY         MOCLDY    73  73 100 CALM      30.05R
HOT SPRINGS    PTCLDY    73  71  93 E3        30.04S
RUSSELLVILLE   CLOUDY    75  72  90 CALM      30.04R
CLINTON        FAIR      70  70 100 CALM      30.07R
$$

ARZ036-100600-
EAST ARKANSAS

CITY           SKY/WX    TMP DP  RH WIND       PRES   REMARKS
$$

ARZ050-053-066-070-073-100600-
SOUTHWEST ARKANSAS

CITY           SKY/WX    TMP DP  RH WIND       PRES   REMARKS
ARKADELPHIA    FAIR      74  74 100 CALM      30.03S
CAMDEN         MOCLDY    73  70  88 CALM      30.03R
TEXARKANA      MOCLDY    75  72  90 VRB3      30.02S
DE QUEEN       PTCLDY    74  73  97 E3        30.01S
$$

ARZ056-057-069-100600-
SOUTHEAST ARKANSAS

CITY           SKY/WX    TMP DP  RH WIND       PRES   REMARKS
PINE BLUFF     PTCLDY    71  70  96 CALM      30.03F
MONTICELLO     CLOUDY    75  71  87 CALM      30.03S

$$




USA.gov is the U.S. government's official web portal to all federal, state and local government web resources and services.